Dewpoint
54 54 53 52 51 53 54 54 56 57 57 55 56 54 54 52 49 44 46 49 49 47 48 41 33 33 37 35 34 27 19 15 22 21 22 26 23 26 26 24 24 25 30 32 33
52 53 53 52 48 48 50 53 53 55 58 56 55 54 54 50 48 49 51 49 45 47 40 32 31 33 32 32 29 19 17 24 30 27 26 27 25 25 23 23 20 25 28 29 30
50 51 52 50 49 49 47 47 51 53 55 57 55 55 53 50 38 44 53 52 48 46 41 39 31 28 29 29 25 24 22 29 30 28 28 25 24 26 23 17 23 23 24 25 26
47 49 50 49 48 49 48 48 51 52 54 57 56 54 53 47 29 48 52 50 46 43 35 29 28 26 27 24 23 22 24 28 29 26 23 21 26 20 24 20 26 25 25 25 25
49 49 48 50 48 47 48 48 51 53 57 56 55 53 46 43 43 45 45 43 43 38 34 27 24 24 24 23 21 22 24 25 27 26 26 26 24 24 22 24 25 26 26 26 26
50 49 48 48 48 49 48 52 52 53 56 53 53 49 42 38 44 43 42 38 36 35 33 32 27 27 27 27 22 26 24 24 25 25 23 22 23 23 21 24 24 24 24 25 24
51 50 51 48 47 48 50 53 53 54 53 53 49 41 37 37 42 43 39 37 37 35 31 33 33 28 28 25 27 23 19 23 23 22 22 18 14 16 20 22 22 22 22 21 20
50 51 51 50 47 48 52 53 53 52 52 51 49 40 35 41 43 38 35 33 32 33 32 33 32 28 27 27 24 23 21 17 21 20 19 12 9 19 22 20 18 18 19 19 20
50 50 50 50 51 51 52 52 52 51 52 51 43 39 33 38 32 33 33 31 31 31 32 31 32 30 32 24 21 24 18 16 18 16 15 13 9 13 20 19 17 18 20 20 20
50 50 50 50 51 50 48 48 48 48 49 47 47 35 33 31 32 33 32 31 30 31 28 30 29 26 25 26 6 19 14 12 10 18 17 15 14 16 19 21 21 22 22 22 22
50 49 50 50 50 48 46 43 38 38 41 38 35 33 33 34 35 33 33 32 31 29 27 27 21 18 17 18 16 16 12 10 16 26 22 21 21 22 24 25 24 25 25 27 33
49 49 50 49 48 46 44 41 42 41 36 39 35 34 35 35 30 32 33 29 28 27 27 24 20 22 23 23 20 20 18 18 20 25 24 23 21 21 23 25 27 28 33 34 35
48 49 48 47 46 44 43 43 47 45 36 33 34 33 34 32 31 30 31 28 26 25 25 22 23 23 23 23 23 24 21 23 22 26 25 22 8 17 21 27 33 35 36 36 36
48 47 46 45 40 43 39 43 46 46 26 28 31 32 33 31 27 32 32 28 26 25 25 23 25 24 23 23 22 18 26 26 26 24 13 24 3 17 22 28 32 34 35 36 37
47 47 48 44 41 40 42 45 46 37 14 26 31 34 34 28 28 27 32 27 24 25 24 23 24 24 24 25 22 24 28 26 26 25 22 21 20 16 25 25 31 33 36 36 37
48 48 45 42 42 42 44 43 36 15 17 26 31 29 28 29 29 29 29 30 30 27 27 25 27 26 26 29 28 30 28 27 28 22 16 18 21 19 23 30 32 35 36 36 36
46 45 45 42 37 42 41 35 17 18 25 25 27 28 28 26 27 28 27 27 26 15 20 25 27 28 27 27 29 27 22 15 16 17 15 20 21 20 29 34 35 35 36 36 37
41 43 43 40 41 41 36 22 17 24 26 27 27 26 25 26 26 27 26 25 28 25 23 22 20 27 27 27 26 27 24 15 8 13 15 22 19 18 33 35 36 37 36 36 37
38 39 39 37 41 40 27 22 21 24 27 26 25 23 24 24 24 25 25 25 27 27 22 23 22 29 31 33 30 28 23 30 22 21 19 19 21 24 33 33 36 36 37 36 38
34 37 36 40 41 33 27 25 25 27 27 26 19 24 22 23 23 25 24 27 28 29 29 26 22 29 34 34 35 29 32 24 23 16 13 16 18 20 28 30 35 36 37 37 39
37 29 30 40 36 28 24 25 26 29 28 25 21 20 23 23 24 25 24 27 29 29 29 29 25 28 33 30 27 30 27 27 26 24 18 18 16 25 30 33 34 36 37 38 37
36 17 28 36 25 27 25 26 28 27 29 25 24 23 23 22 24 25 25 28 30 30 29 31 27 23 25 32 30 29 26 27 23 21 26 23 19 33 34 35 36 34 36 37 38
30 30 36 30 15 25 27 27 28 27 27 26 24 24 24 23 23 26 27 28 31 29 31 32 29 22 26 30 32 30 31 30 29 27 24 20 18 34 35 34 34 34 35 37 37
33 20 28 29 29 25 25 26 24 28 27 27 26 26 24 24 25 25 27 29 30 31 35 34 31 27 19 23 29 29 29 30 30 26 23 23 20 23 28 30 30 32 35 37 36
31 24 29 23 25 25 25 25 25 24 27 28 26 25 25 23 24 24 26 28 30 31 32 31 27 29 29 29 29 28 28 29 29 28 25 22 23 24 26 29 30 32 35 35 34
30 25 27 25 23 22 23 23 22 24 25 24 26 26 27 24 25 25 28 28 29 32 30 32 27 29 27 27 28 27 28 29 29 29 29 28 27 29 30 30 31 33 34 34 33
36 34 29 25 21 21 21 23 22 25 27 28 27 26 26 26 29 29 29 30 30 30 30 29 28 24 22 25 24 19 22 25 27 28 29 27 28 29 28 28 29 30 33 33 32
Wind_Speed
17 17 14 16 17 19 8 9 9 7 22 20 19 15 13 9 5 4 9 2 3 4 7 4 3 4 5 4 4 3 4 3 2 3 4 7 4 6 4 5 5 4 4 5 11
17 16 17 17 15 18 17 13 13 9 13 16 20 17 14 10 15 16 3 5 4 7 5 3 6 6 5 3 4 4 4 3 1 1 4 5 5 4 3 5 5 9 10 6 3
17 13 11 14 15 15 14 13 7 3 3 16 18 18 14 4 8 5 10 8 6 7 2 2 1 5 5 4 3 3 4 8 2 3 3 2 3 5 2 2 2 6 3 3 0
14 11 8 8 9 15 13 11 5 3 2 19 17 17 12 0 6 4 14 8 7 9 3 6 4 4 6 6 3 7 4 6 4 3 3 2 4 4 3 4 3 3 3 3 6
13 9 5 5 5 7 10 9 7 8 2 24 20 16 5 10 6 8 18 12 10 4 7 7 7 5 9 8 6 7 3 6 7 4 2 1 2 4 11 12 14 12 11 12 12
13 8 3 4 3 4 9 11 11 17 22 20 9 5 5 17 7 13 15 8 7 6 8 7 4 7 8 6 5 3 5 6 3 3 2 2 1 3 4 3 8 7 10 10 10
16 7 1 2 3 9 13 19 26 32 24 13 6 11 27 9 7 13 7 8 10 8 9 7 1 6 5 8 4 5 3 2 1 1 0 3 3 9 10 6 10 13 13 13 13
19 17 4 7 6 10 20 26 28 37 26 12 10 7 10 4 9 5 9 12 13 8 6 8 10 11 5 7 4 4 4 3 0 3 1 2 9 9 7 5 10 11 15 17 19
22 19 22 19 13 20 31 33 34 32 24 15 11 7 5 13 10 5 8 7 8 9 10 7 7 5 4 7 5 5 5 4 2 1 1 4 9 7 7 7 19 22 19 18 21
22 23 24 24 24 24 31 32 32 19 15 10 3 10 6 6 5 6 6 5 6 5 6 8 6 6 5 3 7 6 3 1 3 5 4 10 21 23 20 16 25 24 19 17 17
13 15 13 16 15 11 2 2 9 11 17 11 9 20 4 4 6 10 5 5 3 7 6 6 13 10 6 5 4 6 3 1 1 5 8 8 15 28 28 15 21 21 15 10 10
16 11 11 13 15 15 10 9 5 7 20 15 15 12 6 3 10 21 12 5 7 9 4 8 10 3 7 7 8 6 2 3 8 5 7 11 27 22 16 7 8 10 12 12 16
18 5 10 10 10 18 17 9 1 2 9 9 7 9 4 9 7 13 9 4 12 15 11 9 4 2 5 7 7 6 3 2 4 13 2 17 9 8 4 12 13 11 7 9 13
15 12 10 7 4 3 5 3 3 3 9 14 11 9 8 1 7 7 7 3 6 8 8 9 3 4 6 5 3 2 2 3 6 12 6 8 9 10 6 4 9 12 15 17 19
14 13 5 5 2 4 3 5 5 1 8 12 7 3 7 8 2 11 5 11 11 7 3 1 3 5 6 2 2 2 3 4 2 3 5 0 1 7 4 3 9 14 16 16 16
19 16 5 5 3 3 8 6 2 4 7 4 5 5 5 10 4 3 5 7 3 10 12 4 1 3 2 4 3 2 2 5 2 3 3 3 2 7 3 2 8 12 13 16 17
15 15 9 1 5 9 7 3 5 11 2 3 3 4 8 7 7 6 8 9 3 4 5 6 3 3 1 1 3 6 5 2 3 2 5 2 5 13 8 3 6 12 14 17 17
14 11 4 1 5 5 3 6 15 2 2 1 3 7 5 4 6 5 3 5 4 6 4 3 1 3 3 2 1 3 1 3 4 4 6 1 8 5 5 5 8 8 10 13 15
7 6 4 5 4 2 7 13 5 6 4 6 4 4 3 3 3 3 3 4 3 2 3 5 2 2 1 1 2 2 2 1 1 2 5 5 7 9 7 11 14 13 13 12 12
3 5 5 6 4 6 10 7 4 5 5 3 3 2 3 3 3 3 3 1 4 1 2 4 3 4 4 3 1 3 2 2 1 2 6 7 8 11 4 14 16 13 14 13 13
4 3 4 5 4 12 8 5 5 4 3 2 2 4 4 5 5 3 4 1 5 5 1 4 2 2 3 8 12 5 3 6 3 3 3 6 9 8 8 10 14 12 11 11 16
3 4 3 1 7 4 5 2 3 2 2 1 1 3 5 7 3 3 5 4 8 10 3 5 4 7 9 6 14 7 8 10 5 4 5 2 11 13 13 11 12 10 10 11 14
3 2 3 4 6 6 3 3 2 2 1 1 1 0 1 4 3 4 6 2 9 11 7 7 5 3 1 0 3 6 7 7 3 3 11 4 9 7 11 13 17 16 12 10 13
2 1 5 7 3 11 7 2 1 1 1 1 1 1 1 3 2 6 6 5 8 6 5 6 4 7 7 1 4 5 8 14 16 7 5 18 22 25 16 19 20 15 11 10 10
4 1 2 3 2 7 6 8 3 2 1 0 2 5 5 4 3 4 4 3 5 5 5 3 5 6 16 21 18 21 20 17 20 23 13 10 15 28 24 20 19 9 7 10 9
3 2 3 2 1 1 0 7 9 5 4 2 3 3 5 4 5 2 5 5 5 5 7 4 5 7 14 16 16 20 23 22 25 26 30 30 36 33 28 17 11 11 10 11 11
2 3 2 2 1 3 2 3 8 9 6 6 3 2 6 8 5 4 4 2 2 5 10 4 4 6 8 11 18 16 16 24 14 13 27 24 31 18 18 15 14 14 13 14 11
Wind_Direction
93 100 83 70 69 69 77 78 45 268 192 168 156 150 144 134 116 65 59 358 39 0 345 326 32 53 80 68 47 82 87 124 55 118 120 9 96 11 343 76 50 61 134 166 162
81 90 87 82 68 72 78 82 53 8 173 167 150 150 143 148 98 61 342 25 25 8 44 67 108 87 68 64 32 73 98 114 265 124 93 49 72 354 49 24 56 72 48 52 70
68 73 92 98 91 75 76 62 48 85 224 168 154 144 143 146 76 13 355 355 1 7 335 308 45 75 74 68 31 74 120 139 78 110 57 50 30 359 45 232 152 111 326 321 332
55 71 78 77 73 92 74 90 51 132 267 161 150 136 136 40 122 331 350 344 342 342 343 116 104 80 102 113 46 101 69 132 160 52 57 68 328 333 243 226 170 276 267 274 291
40 45 65 104 74 74 85 74 69 101 69 147 142 139 125 68 58 320 335 333 328 1 54 95 107 102 125 120 82 95 134 96 130 112 105 103 301 278 263 268 284 289 283 277 281
12 355 27 43 79 82 69 63 108 105 105 113 122 132 88 84 315 330 332 340 359 55 58 56 109 111 90 87 92 114 112 115 141 122 41 299 328 355 283 331 301 297 300 299 289
14 352 250 94 82 114 98 99 102 87 118 95 28 123 65 79 328 332 356 56 60 68 75 36 100 89 117 110 117 104 107 51 92 228 307 354 271 238 271 300 271 279 288 288 284
37 32 95 113 125 109 106 100 97 91 67 48 4 43 75 325 324 27 45 45 44 44 68 37 75 86 63 117 61 86 70 162 243 161 279 49 270 253 255 288 281 285 285 284 281
53 58 81 70 137 101 91 88 83 85 65 21 24 56 63 325 51 28 58 70 45 44 35 39 58 78 68 106 88 34 161 180 225 246 275 219 272 277 223 283 287 286 282 282 283
67 69 74 70 73 88 86 87 71 56 40 0 24 70 349 39 12 2 9 35 52 22 42 41 55 81 47 54 185 173 157 167 211 359 298 272 270 279 276 281 276 284 283 280 287
71 81 61 53 33 25 91 25 48 43 52 72 63 94 71 346 48 18 360 360 55 54 90 33 84 96 88 73 97 105 107 239 261 33 338 285 292 290 290 277 280 277 288 357 26
57 55 43 59 49 63 68 74 62 140 84 39 44 60 52 357 51 14 10 69 59 92 86 69 89 110 94 73 88 80 90 323 296 341 346 309 300 293 301 298 291 15 67 20 354
46 71 36 29 51 54 65 73 42 25 87 36 20 36 12 51 50 4 26 39 68 71 73 98 115 73 82 70 96 54 93 22 309 330 67 345 315 336 345 9 68 44 25 359 348
42 18 338 351 60 360 40 314 339 355 81 8 358 19 356 82 51 4 19 63 52 97 80 76 19 81 79 79 80 132 49 37 2 7 314 33 287 305 344 63 42 8 358 345 339
18 24 11 16 14 43 306 299 297 133 76 322 350 295 326 77 128 13 355 48 81 66 119 92 77 63 72 61 80 128 353 331 348 343 341 319 258 262 317 275 347 343 339 334 329
358 4 359 3 21 309 316 320 54 50 68 2 336 27 48 49 45 6 40 55 67 61 63 77 51 58 73 63 67 336 39 41 61 48 296 233 208 269 227 269 325 323 323 330 325
353 346 350 33 316 316 334 15 61 65 290 62 70 44 63 51 46 50 59 58 69 108 36 14 12 349 60 85 9 51 44 322 318 316 244 176 211 256 205 208 284 313 316 319 324
340 337 343 301 320 335 36 56 67 54 210 216 93 67 71 31 34 33 95 76 59 72 108 109 137 198 181 183 92 48 140 180 260 252 278 189 240 262 180 230 273 275 296 314 316
6 349 339 321 338 57 66 60 120 171 163 135 74 68 54 51 110 58 51 107 74 67 125 156 203 125 128 89 157 165 226 234 268 253 285 260 278 273 255 292 329 324 310 314 323
36 3 329 332 6 43 72 88 92 169 137 119 121 164 138 165 138 166 184 160 131 102 102 174 118 198 155 90 53 188 159 162 177 275 283 282 273 242 273 315 301 310 309 315 330
62 48 295 355 55 43 69 81 92 70 84 145 154 138 179 181 187 174 190 184 140 156 236 151 138 178 151 206 186 170 217 205 214 217 241 302 274 210 228 268 293 311 314 335 338
65 75 341 69 43 35 62 79 61 61 11 301 94 105 166 174 152 219 207 229 172 167 197 194 178 231 217 270 191 192 192 178 178 211 237 236 272 200 216 248 263 319 316 329 325
71 308 340 94 97 66 36 77 68 157 261 252 218 148 139 165 180 201 203 236 172 183 197 184 223 243 288 205 153 227 208 200 193 178 240 233 261 223 234 265 278 289 298 304 310
76 85 352 46 102 124 125 88 80 5 277 281 203 40 123 197 187 201 208 206 205 203 179 175 246 230 236 231 149 211 216 213 206 215 238 232 273 280 275 270 286 298 279 284 303
36 71 136 120 17 127 140 145 144 284 248 240 265 226 194 206 214 229 203 218 209 201 183 203 266 257 265 266 263 261 252 230 219 223 230 270 254 275 283 283 287 288 263 278 297
83 54 28 98 120 346 1 174 159 172 180 249 215 274 211 232 203 247 187 210 210 177 186 209 274 311 293 279 262 264 256 240 232 231 237 253 272 276 277 284 261 251 257 272 280
135 107 72 321 150 146 234 211 194 165 178 179 210 199 241 254 269 259 225 243 222 192 196 221 253 316 277 313 318 286 254 222 218 219 224 238 244 263 280 277 265 262 249 261 269